Weather History for Meacham, OR

Change the Weather History Date:

Friday, September 13, 2013

  Actual Average Record
Temperature  
Mean Temperature 64 °F -  
Max Temperature 84 °F 68 °F 84 °F (2011)
Min Temperature 45 °F 33 °F 26 °F (2012)
Degree Days  
Heating Degree Days 2    
Growing Degree Days 14 (Base 50)    
Moisture  
Dew Point 46 °F    
Average Humidity 60    
Maximum Humidity 90    
Minimum Humidity 26    
Precipitation  
Precipitation 0.00 in - - ()
Sea Level Pressure  
Sea Level Pressure 29.90 in    
Wind  
Wind Speed 1 mph (North)    
Max Wind Speed 5 mph    
Max Gust Speed -    
Visibility 10 miles    
Events      
Averages and records for this station are not official NWS values.
T = Trace of Precipitation, MM = Missing Value Source: NWS Daily Summary

Daily Weather History Graph

Daily Weather History Graph

Search for Another Location

Airport:

Trip Planner

Search our weather history database for the weather conditions in past years. The results will help you decide how hot, cold, wet, or windy it might be!

Date:

Astronomy

Sep. 13, 2013 Rise Set
Actual Time 6:30 AM PDT 7:07 PM PDT
Civil Twilight 6:00 AM PDT 7:37 PM PDT
Nautical Twilight 5:24 AM PDT 8:13 PM PDT
Astronomical Twilight 4:47 AM PDT 8:49 PM PDT
Moon 3:14 PM PDT (9/13) No Moon Set
Length of Visible Light 13h 37m
Length of Day
12h 37m
Waxing Gibbous, 62% of the Moon is Illuminated
Sep 13
Waxing Gibbous
Sep 19
Full
Sep 26
Last Quarter
Oct 4
New
Oct 11
First Quarter

Hourly Weather History & Observations

Time (PDT) Temp. Dew Point Humidity Pressure Visibility Wind Dir Wind Speed Gust Speed Precip Events Conditions
12:56 AM 52.0 °F 46.9 °F 83% 29.95 in 10.0 mi Calm Calm - N/A   Partly Cloudy
1:56 AM 51.1 °F 46.0 °F 83% 29.94 in 10.0 mi Calm Calm - N/A   Clear
2:56 AM 48.9 °F 45.0 °F 86% 29.94 in 10.0 mi Calm Calm - N/A   Clear
3:56 AM 48.0 °F 44.1 °F 86% 29.94 in 10.0 mi Calm Calm - N/A   Clear
4:56 AM 46.9 °F 44.1 °F 90% 29.94 in 10.0 mi Calm Calm - N/A   Clear
5:56 AM 46.0 °F 43.0 °F 89% 29.95 in 10.0 mi Calm Calm - N/A   Clear
6:56 AM 45.0 °F 42.1 °F 90% 29.96 in 10.0 mi Calm Calm - N/A   Clear
7:56 AM 51.1 °F 45.0 °F 80% 29.96 in 10.0 mi Calm Calm - N/A   Clear
8:56 AM 63.0 °F 48.9 °F 60% 29.94 in 10.0 mi Calm Calm - N/A   Clear
9:56 AM 75.0 °F 48.9 °F 40% 29.92 in 10.0 mi Calm Calm - N/A   Clear
10:56 AM 78.1 °F 46.9 °F 33% 29.91 in 10.0 mi Calm Calm - N/A   Clear
11:56 AM 80.1 °F 48.0 °F 32% 29.90 in 10.0 mi Calm Calm - N/A   Clear
12:56 PM 82.0 °F 48.0 °F 30% 29.88 in 10.0 mi Variable 3.5 mph - N/A   Clear
1:56 PM 82.0 °F 46.9 °F 29% 29.87 in 10.0 mi Variable 4.6 mph - N/A   Clear
2:56 PM 82.9 °F 45.0 °F 26% 29.86 in 10.0 mi Variable 4.6 mph - N/A   Clear
3:56 PM 82.0 °F 46.9 °F 29% 29.85 in 10.0 mi Variable 3.5 mph - N/A   Clear
4:56 PM 81.0 °F 48.9 °F 33% 29.85 in 10.0 mi Variable 3.5 mph - N/A   Clear
5:56 PM 78.1 °F 46.9 °F 33% 29.85 in 10.0 mi Calm Calm - N/A   Clear
6:56 PM 73.0 °F 48.0 °F 41% 29.86 in 10.0 mi Calm Calm - N/A   Clear
7:56 PM 64.0 °F 48.0 °F 56% 29.88 in 10.0 mi Calm Calm - N/A   Clear
8:56 PM 59.0 °F 48.9 °F 69% 29.87 in 10.0 mi Calm Calm - N/A   Clear
9:56 PM 55.9 °F 48.0 °F 75% 29.86 in 10.0 mi Calm Calm - N/A   Clear
10:56 PM 53.1 °F 46.0 °F 77% 29.87 in 10.0 mi Calm Calm - N/A   Clear
11:56 PM 50.0 °F 45.0 °F 83% 29.86 in 10.0 mi Calm Calm - N/A   Clear